timestamp,wind_dir_avg,wind_spd_max_dir,wind_spd_avg,wind_spd_gust,battery_voltage,lat,long
2018-04-28 00:00:00+00:00,231.0,233.0,6.99,7.79,,47.59359,-54.27349
2018-04-28 00:10:00+00:00,234.0,237.0,7.86,9.46,,47.59359,-54.27349
2018-04-28 00:20:00+00:00,238.0,237.0,7.55,8.54,,47.59359,-54.27349
2018-04-28 00:30:00+00:00,235.0,236.0,6.16,7.25,,47.59359,-54.27349
2018-04-28 00:40:00+00:00,232.0,236.0,5.63,6.33,,47.59359,-54.27349
2018-04-28 00:50:00+00:00,231.0,231.0,6.9,7.78,,47.59359,-54.27349
2018-04-28 01:00:00+00:00,231.0,231.0,7.86,8.7,,47.59359,-54.27349
2018-04-28 01:10:00+00:00,235.0,234.0,6.98,7.69,,47.59359,-54.27349
2018-04-28 01:20:00+00:00,231.0,232.0,7.07,8.14,,47.59359,-54.27349
2018-04-28 01:30:00+00:00,231.0,230.0,7.3,7.88,,47.59359,-54.27349
2018-04-28 01:40:00+00:00,223.0,221.0,7.22,8.23,,47.59359,-54.27349
2018-04-28 01:50:00+00:00,228.0,229.0,7.01,7.69,,47.59359,-54.27349
2018-04-28 02:00:00+00:00,219.0,219.0,7.55,8.06,,47.59359,-54.27349
2018-04-28 02:10:00+00:00,222.0,224.0,7.15,7.68,,47.59359,-54.27349
2018-04-28 02:20:00+00:00,215.0,219.0,6.94,7.43,,47.59359,-54.27349
2018-04-28 02:30:00+00:00,218.0,217.0,6.76,7.28,,47.59359,-54.27349
2018-04-28 02:40:00+00:00,216.0,220.0,6.86,7.37,,47.59359,-54.27349
2018-04-28 02:50:00+00:00,223.0,219.0,7.19,7.7,,47.59359,-54.27349
2018-04-28 03:00:00+00:00,224.0,224.0,6.15,6.74,,47.59359,-54.27349
2018-04-28 03:10:00+00:00,225.0,225.0,6.5,7.24,,47.59359,-54.27349
2018-04-28 03:20:00+00:00,234.0,235.0,6.04,6.73,,47.59359,-54.27349
2018-04-28 03:30:00+00:00,230.0,231.0,6.15,6.65,,47.59359,-54.27349
2018-04-28 03:40:00+00:00,234.0,234.0,5.39,5.42,,47.59359,-54.27349
2018-04-28 03:50:00+00:00,239.0,239.0,4.21,5.04,,47.59359,-54.27349
2018-04-28 04:00:00+00:00,233.0,237.0,4.21,4.53,,47.59359,-54.27349
2018-04-28 04:10:00+00:00,240.0,242.0,4.61,5.2,,47.59359,-54.27349
2018-04-28 04:20:00+00:00,230.0,230.0,4.77,5.52,,47.59359,-54.27349
2018-04-28 04:30:00+00:00,231.0,232.0,5.16,5.84,,47.59359,-54.27349
2018-04-28 04:40:00+00:00,224.0,227.0,4.27,4.59,,47.59359,-54.27349
2018-04-28 04:50:00+00:00,222.0,218.0,3.96,4.31,,47.59359,-54.27349
2018-04-28 05:00:00+00:00,227.0,228.0,4.41,4.96,,47.59359,-54.27349
2018-04-28 05:10:00+00:00,222.0,229.0,4.13,4.54,,47.59359,-54.27349
2018-04-28 05:20:00+00:00,226.0,226.0,3.59,4.01,,47.59359,-54.27349
2018-04-28 05:30:00+00:00,227.0,230.0,3.49,3.81,,47.59359,-54.27349
2018-04-28 05:40:00+00:00,260.0,265.0,1.63,1.99,,47.59359,-54.27349
2018-04-28 08:00:00+00:00,244.0,244.0,1.78,1.94,,47.59359,-54.27349
2018-04-28 08:10:00+00:00,251.0,248.0,1.67,1.99,,47.59359,-54.27349
2018-04-28 08:20:00+00:00,237.0,242.0,1.52,1.91,,47.59359,-54.27349
2018-04-28 08:30:00+00:00,231.0,235.0,2.02,2.27,,47.59359,-54.27349
2018-04-28 08:40:00+00:00,237.0,233.0,1.52,1.76,,47.59359,-54.27349
2018-04-28 08:50:00+00:00,236.0,240.0,2.01,2.28,,47.59359,-54.27349
2018-04-28 09:00:00+00:00,222.0,224.0,2.83,3.1,,47.59359,-54.27349
2018-04-28 09:10:00+00:00,228.0,229.0,3.48,3.74,,47.59359,-54.27349
2018-04-28 09:20:00+00:00,224.0,228.0,3.26,3.54,,47.59359,-54.27349
2018-04-28 09:30:00+00:00,221.0,226.0,3.2,3.77,,47.59359,-54.27349
2018-04-28 09:40:00+00:00,225.0,224.0,3.01,3.24,,47.59359,-54.27349
2018-04-28 09:50:00+00:00,218.0,220.0,3.17,3.47,,47.59359,-54.27349
2018-04-28 10:00:00+00:00,222.0,224.0,3.1,3.48,,47.59359,-54.27349
2018-04-28 10:10:00+00:00,230.0,228.0,2.5,2.8,,47.59359,-54.27349
2018-04-28 10:20:00+00:00,218.0,218.0,2.59,2.88,,47.59359,-54.27349
2018-04-28 10:30:00+00:00,231.0,234.0,2.02,2.32,,47.59359,-54.27349
2018-04-28 10:40:00+00:00,267.0,267.0,1.7,1.9,,47.59359,-54.27349
2018-04-28 10:50:00+00:00,270.0,271.0,1.56,1.79,,47.59359,-54.27349
2018-04-28 11:00:00+00:00,296.0,294.0,0.94,1.26,,47.59359,-54.27349
2018-04-28 11:10:00+00:00,276.0,278.0,0.44,0.56,,47.59359,-54.27349
2018-04-28 11:20:00+00:00,229.0,223.0,0.47,0.57,,47.59359,-54.27349
2018-04-28 11:30:00+00:00,171.0,176.0,0.14,0.57,,47.59359,-54.27349
2018-04-28 11:40:00+00:00,171.0,167.0,0.53,0.67,,47.59359,-54.27349
2018-04-28 11:50:00+00:00,162.0,164.0,0.88,1.14,,47.59359,-54.27349
2018-04-28 12:00:00+00:00,175.0,176.0,1.53,1.79,,47.59359,-54.27349
2018-04-28 12:10:00+00:00,186.0,187.0,1.68,1.92,,47.59359,-54.27349
2018-04-28 12:20:00+00:00,181.0,180.0,5.91,6.52,,47.59359,-54.27349
2018-04-28 12:30:00+00:00,192.0,192.0,1.45,1.72,,47.59359,-54.27349
2018-04-28 12:40:00+00:00,187.0,182.0,0.52,0.9,,47.59359,-54.27349
2018-04-28 12:50:00+00:00,168.0,182.0,0.3,0.55,,47.59359,-54.27349
2018-04-28 13:00:00+00:00,79.0,56.0,0.34,0.62,,47.59359,-54.27349
2018-04-28 13:10:00+00:00,306.0,305.0,0.4,0.68,,47.59359,-54.27349
2018-04-28 13:20:00+00:00,12.0,25.0,0.67,0.79,,47.59359,-54.27349
2018-04-28 13:30:00+00:00,59.0,57.0,1.62,1.87,,47.59359,-54.27349
2018-04-28 13:40:00+00:00,40.0,40.0,2.44,2.6,,47.59359,-54.27349
2018-04-28 13:50:00+00:00,40.0,40.0,2.38,2.54,,47.59359,-54.27349
2018-04-28 14:00:00+00:00,35.0,35.0,2.32,2.56,,47.59359,-54.27349
2018-04-28 14:10:00+00:00,38.0,39.0,2.41,2.6,,47.59359,-54.27349
2018-04-28 14:20:00+00:00,46.0,52.0,1.65,1.81,,47.59359,-54.27349
2018-04-28 14:30:00+00:00,51.0,54.0,1.89,2.17,,47.59359,-54.27349
2018-04-28 14:40:00+00:00,45.0,45.0,0.41,0.62,,47.59359,-54.27349
2018-04-28 14:50:00+00:00,351.0,358.0,0.34,0.41,,47.59359,-54.27349
2018-04-28 15:00:00+00:00,316.0,310.0,0.72,0.81,,47.59359,-54.27349
2018-04-28 15:10:00+00:00,296.0,297.0,0.59,0.71,,47.59359,-54.27349
2018-04-28 15:20:00+00:00,316.0,315.0,0.55,0.6,,47.59359,-54.27349
2018-04-28 15:30:00+00:00,357.0,356.0,1.22,1.31,,47.59359,-54.27349
2018-04-28 15:40:00+00:00,15.0,16.0,1.41,1.51,,47.59359,-54.27349
2018-04-28 15:50:00+00:00,66.0,49.0,0.09,0.26,,47.59359,-54.27349
2018-04-28 16:00:00+00:00,62.0,64.0,1.48,1.75,,47.59359,-54.27349
2018-04-28 16:10:00+00:00,80.0,69.0,1.35,1.96,,47.59359,-54.27349
2018-04-28 16:20:00+00:00,94.0,90.0,2.4,3.13,,47.59359,-54.27349
2018-04-28 16:30:00+00:00,120.0,126.0,1.63,1.98,,47.59359,-54.27349
2018-04-28 16:40:00+00:00,125.0,127.0,3.25,3.41,,47.59359,-54.27349
2018-04-28 16:50:00+00:00,87.0,87.0,1.24,1.96,,47.59359,-54.27349
2018-04-28 17:00:00+00:00,58.0,59.0,1.81,1.95,,47.59359,-54.27349
2018-04-28 17:10:00+00:00,331.0,322.0,1.48,1.98,,47.59359,-54.27349
2018-04-28 17:20:00+00:00,13.0,10.0,0.55,0.87,,47.59359,-54.27349
2018-04-28 17:30:00+00:00,9.0,16.0,1.5,1.78,,47.59359,-54.27349
2018-04-28 17:40:00+00:00,51.0,59.0,2.33,2.64,,47.59359,-54.27349
2018-04-28 17:50:00+00:00,11.0,12.0,0.96,1.18,,47.59359,-54.27349
2018-04-28 18:00:00+00:00,51.0,57.0,1.46,1.87,,47.59359,-54.27349
2018-04-28 18:10:00+00:00,59.0,56.0,1.46,1.68,,47.59359,-54.27349
2018-04-28 18:20:00+00:00,90.0,80.0,0.76,1.06,,47.59359,-54.27349
2018-04-28 18:30:00+00:00,150.0,136.0,1.13,1.42,,47.59359,-54.27349
2018-04-28 18:40:00+00:00,135.0,136.0,1.03,1.35,,47.59359,-54.27349
2018-04-28 18:50:00+00:00,133.0,131.0,1.23,1.48,,47.59359,-54.27349
2018-04-28 19:00:00+00:00,132.0,121.0,1.59,2.1,,47.59359,-54.27349
2018-04-28 19:10:00+00:00,196.0,203.0,2.14,2.72,,47.59359,-54.27349
2018-04-28 19:20:00+00:00,193.0,192.0,1.93,2.47,,47.59359,-54.27349
2018-04-28 19:30:00+00:00,200.0,214.0,1.62,2.16,,47.59359,-54.27349
2018-04-28 19:40:00+00:00,182.0,186.0,1.14,1.5,,47.59359,-54.27349
2018-04-28 19:50:00+00:00,223.0,229.0,1.95,2.46,,47.59359,-54.27349
2018-04-28 20:00:00+00:00,229.0,230.0,2.23,2.82,,47.59359,-54.27349
2018-04-28 20:10:00+00:00,234.0,234.0,3.36,3.69,,47.59359,-54.27349
2018-04-28 20:20:00+00:00,245.0,254.0,3.79,7.66,,47.59359,-54.27349
2018-04-28 20:30:00+00:00,226.0,226.0,4.69,5.36,,47.59359,-54.27349
2018-04-28 20:40:00+00:00,237.0,244.0,6.43,7.44,,47.59359,-54.27349
2018-04-28 20:50:00+00:00,240.0,236.0,5.51,6.3,,47.59359,-54.27349
2018-04-28 21:00:00+00:00,238.0,241.0,5.27,5.87,,47.59359,-54.27349
2018-04-28 21:10:00+00:00,233.0,231.0,6.1,7.0,,47.59359,-54.27349
2018-04-28 21:20:00+00:00,227.0,226.0,5.45,6.12,,47.59359,-54.27349
2018-04-28 21:30:00+00:00,223.0,223.0,7.64,8.45,,47.59359,-54.27349
2018-04-28 21:40:00+00:00,228.0,229.0,9.4,10.08,,47.59359,-54.27349
2018-04-28 21:50:00+00:00,222.0,226.0,9.52,10.7,,47.59359,-54.27349
2018-04-28 22:00:00+00:00,217.0,217.0,7.13,7.73,,47.59359,-54.27349
2018-04-28 22:10:00+00:00,217.0,218.0,8.01,8.57,,47.59359,-54.27349
2018-04-28 22:20:00+00:00,221.0,224.0,8.51,9.23,,47.59359,-54.27349
2018-04-28 22:30:00+00:00,221.0,222.0,7.11,8.01,,47.59359,-54.27349
2018-04-28 22:40:00+00:00,221.0,224.0,7.07,8.4,,47.59359,-54.27349
2018-04-28 22:50:00+00:00,224.0,224.0,7.7,8.23,,47.59359,-54.27349
2018-04-28 23:00:00+00:00,220.0,219.0,7.4,8.67,,47.59359,-54.27349
2018-04-28 23:10:00+00:00,228.0,225.0,8.84,10.13,,47.59359,-54.27349
2018-04-28 23:20:00+00:00,220.0,220.0,8.44,9.04,,47.59359,-54.27349
2018-04-28 23:30:00+00:00,224.0,227.0,7.96,8.79,,47.59359,-54.27349
2018-04-28 23:40:00+00:00,222.0,227.0,10.47,11.43,,47.59359,-54.27349
2018-04-28 23:50:00+00:00,224.0,226.0,10.73,12.23,,47.59359,-54.27349
